090  
ASUS41 KOKX 181809  
RWROKX  
 
REGIONAL WEATHER ROUNDUP  
NATIONAL WEATHER SERVICE NEW YORK NY  
200 PM EDT FRI AUG 18 2017  
 
NOTE: "FAIR" INDICATES FEW OR NO CLOUDS BELOW 12,000 FEET WITH NO  
SIGNIFICANT WEATHER AND/OR S TO VISIBILITY
.  
 
NYZ071-072-176-178-NJZ106-104-181900-  
NEW YORK CITY METRO AREA  
 
CITY SKY/WX TMP DP RH WIND PRES REMARKS
 
CENTRAL PARK CLOUDY 79 76 90 VRB5 29.86F  
BRONX BOT GARD N/A 81 73 78 SE5 29.86R  
LAGUARDIA APRT LGT RAIN 81 77 88 S13 29.83F  
KENNEDY INTL CLOUDY 79 78 97 S17 29.86S  
BREEZY POINT N/A 75 N/A N/A S10 N/A  
NEWARK/LIBERTY LGT RAIN 80 76 87 S8 29.83F  
TETERBORO NOT AVBL  

 
 
NYZ177-179-078>081-181900-  
LONG ISLAND NEW YORK  
 
CITY SKY/WX TMP DP RH WIND PRES REMARKS
 
JONES BEACH N/A 77 N/A N/A S13G18 N/A  
MATINECOCK PT N/A 79 N/A N/A SW9 N/A  
FARMINGDALE CLOUDY 79 75 87 SW17G24 29.85F  
MACARTHUR/ISP CLOUDY 80 76 87 S13G23 29.85F  
SHIRLEY CLOUDY 79 76 90 S16 29.86F  
MT SINAI HARB N/A 79 N/A N/A S10G17 N/A  
WESTHAMPTON CLOUDY 78 74 87 S13G23 29.89F  
EAST HAMPTON CLOUDY 74 73 94 S9G20 29.87F  
MONTAUK N/A 73 73 100 S8 29.90F  

 
 
NYZ052-065-067-181900-  
HUDSON VALLEY  
 
CITY SKY/WX TMP DP RH WIND PRES REMARKS
 
WHITE PLAINS CLOUDY 79 76 90 S7 29.85F FOG  
LARCHMONT HARB N/A 77 N/A N/A S12 N/A  
CROTON ON HUDS N/A 77 N/A N/A S3 N/A  
NEWBURGH CLOUDY 79 75 89 SW7 29.85F  
MONTGOMERY CLOUDY 79 73 82 SW6 29.83F  
POUGHKEEPSIE CLOUDY 79 72 79 VRB6 29.82F  
ALBANY NOT AVBL  

 
 
NJZ001-105-106-008-010-013-015-019>022-104-181900-  
NEW JERSEY  
 
CITY SKY/WX TMP DP RH WIND PRES REMARKS
 
NEWARK/LIBERTY LGT RAIN 80 76 87 S8 29.83F  
TETERBORO NOT AVBL  
CALDWELL CLOUDY 80 77 90 VRB3 29.84F  
SOMERVILLE CLOUDY 81 77 88 S5 29.82F  
LINDEN DRIZZLE 79 76 89 CALM 29.84F  
PERTH AMBOY N/A 79 N/A N/A S8 N/A  
SUSSEX LGT RAIN 79 75 87 SW5 29.84S  
ANDOVER N/A 80 74 81 SW5 29.85F  
TRENTON CLOUDY 82 77 84 SW6 29.83F HX 90  
MILLVILLE CLOUDY 88 80 77 SW10 29.84F HX 104  
ATLANTIC CITY PTSUNNY 86 78 77 S10 29.84F HX 98  
WRIGHTSTOWN PTSUNNY 82 79 89 S8 29.81F HX 92  
TOMS RIVER CLOUDY 84 79 85 S9 29.85F HX 96  
BELMAR CLOUDY 83 76 79 S10 29.85F HX 91  

 
 
PAZ047>061-062-071-181900-  
EASTERN PENNSYLVANIA  
 
CITY SKY/WX TMP DP RH WIND PRES REMARKS
 
PHILADELPHIA CLOUDY 84 76 76 W10 29.83F HX 93  
ALLENTOWN NOT AVBL  
SCRANTON CLOUDY 80 75 84 SW7 29.82F  

 
 
CTZ002-004>006-009-010-012-RIZ004-006-007-MAZ004-011-015-181900-  
SOUTHERN NEW ENGLAND  
IN CT  
 
CITY SKY/WX TMP DP RH WIND PRES REMARKS
 
BRADLEY INTL NOT AVBL  
HARTFORD CLOUDY 79 74 84 S12 29.83F  
DANBURY CLOUDY 77 75 93 SW8 29.86F  
WTRBURY/OXFORD LGT RAIN 75 73 94 S7 29.87F  
NORWALK HARBOR N/A 75 N/A N/A MISG N/A  
BRIDGEPORT CLOUDY 79 75 87 S14 29.84F  
MERIDEN CLOUDY 77 74 90 S6 29.84F  
NEW HAVEN CLOUDY 79 75 87 S8 29.85F  
CHESTER NOT AVBL  
GROTON LGT RAIN 73 72 96 S15 29.87F FOG  
WILIMANTIC CLOUDY 78 73 84 S12 29.86F  
 
IN RI  
 
CITY SKY/WX TMP DP RH WIND PRES REMARKS
 
PROVIDENCE CLOUDY 79 72 78 S14G28 29.90F  
BLOCK ISLAND HVY RAIN 72 72 100 S13 29.92S FOG  
WESTERLY LGT RAIN 73 72 96 S14G23 29.89F FOG  
IN MA  
 
CITY SKY/WX TMP DP RH WIND PRES REMARKS
 
BOSTON CLOUDY 79 69 71 S20G28 29.86  
WORCESTER CLOUDY 76 66 71 S12 29.89F  
WESTFIELD CLOUDY 78 73 84 S7 29.83F  
PROVINCETOWN CLOUDY 74 70 87 S16G23 29.91F  
NANTUCKET CLOUDY 70 69 97 S13 29.95F FOG  

 
 
ANZ330-335-338-340-345-350-353-355-181900-  
COASTAL MARINE OBSERVATIONS  
 
 
STATION/POSITION TIME SKY/WX TEMP WIND PRES VSBY WAVE
 
AIR SEA DIR/SP/G HT/PER  
(UTC) (F) (DEG/KT/KT) (MB) (MI) (FT/S)  
NY HARB ENTRANCE 1750 77 76 190/ 16/ 19 1010.0 3/ 5  
GREAT SOUTH BAY 1730 76 78 200/ 12/ 16 N/A  
23 SSW MONTAUK P 1750 74 71 1012.1 4/ 5  
15 E BARNEGAT LI 1730 76 N/A 4/ 5  
HUDSON CANYON 1750 77 75 180/ 16/ 17 1012.2 4/ 4  
KINGS POINT 1748 78 75 230/ 11/ 14 1010.3  
EXECUTION ROCKS NOT AVBL  
WESTERN LI SOUND NOT AVBL  
CENTRAL LI SOUND NOT AVBL  
EASTERN LI SOUND NOT AVBL  
ROBBINS REEF 1748 190/ 11/ 13 1011.1  

 
 
>>>>>>>>>>>>>>>>>>>>>>>>>>>> KEY <<<<<<<<<<<<<<<<<<<<<<<<<<<  
> <  
> SKY/WX - SKY CONDITION/PRESENT WEATHER <  
> TMP - TEMPERATURE IN FAHRENHEIT <  
> DP - DEW POINT IN FAHRENHEIT <  
> RH - RELATIVE HUMIDITY IN PERCENT <  
> WIND - DIRECTION (FROM) AND SPEED IN MPH <  
> PRES - MEAN SEA LEVEL PRESSURE (INCHES OF HG) <  
> WCI - WIND CHILL INDEX <  
> VSB - VISIBILITY IN MILES <  
> HX - HEAT INDEX <  
> TC - TEMPERATURE IN CELSIUS <  
> VRB - VARIABLE WIND DIRECTION <  
> <  
>>>>>>>>>>>>>>>>>>>>>>>>>>>> KEY <<<<<<<<<<<<<<<<<<<<<<<<<<<  
 
 
CLICK HERE TO GO TO PREVIOUS BULLETINS.

The Nexlab NY Page
The Nexlab NJ Page
The Nexlab CT Page Main Text Page